Location: Red Deer
(52.2681°N, 113.8112°W)
Time: 17:03:01
(UTC-06:00)

Envisat - Pass Details

Date: 26 April 2024
Orbit: 762 x 764 km, 98.3° (Epoch: 27 May)

Event Time Altitude Azimuth Distance (km) Brightness Sun altitude
Rises 04:10:03 0° 21° (NNE) 3,240 7.7 -15.8°
Reaches altitude 10° 04:12:39 10° 33° (NNE) 2,309 6.8 -15.5°
Maximum altitude 04:17:05 29° 94° (E) 1,364 4.7 -15.1°
Drops below altitude 10° 04:21:29 10° 154° (SSE) 2,293 5.3 -14.7°
Enters shadow 04:23:50 - 165° (SSE) 3,135 5.9 -14.4°
